Terminal Aerodrome Forecast
Issued by NWS Dodge City, KS

Home | Current Version | Previous Version | Graphics & Text | Print | Product List | Glossary Off
Versions: 1 2 3 4 5 6 7 8 9 10 11 12 13 14 15 16 17 18 19 20 21 22 23 24 25 26 27 28 29 30 31 32 33 34

000
FTUS43 KDDC 210520
TAFDDC
TAF
KDDC 210520Z 2106/2206 14005KT P6SM SKC
     FM211100 14006KT 1SM BR OVC007
      TEMPO 2112/2116 1/4SM FG VV002
     FM211600 16014KT P6SM SCT030=

USA.gov is the U.S. government's official web portal to all federal, state and local government web resources and services.